[[{"header":{"parameterUnit":"m.s-1","parameterCategory":2,"la1":30.2991,"la2":30.254,"lo1":-89.0895,"lo2":-89.0444,"dy":0.0017,"dx":0.0017,"nx":28,"ny":28,"refTime":"2024-03-27T21:00:00:Z","depth":"0","parameterNumber":2,"parameterNumberName":"U-component_of_CURRENTS"},"data":[0,0,0,0,0,0,0,0,0,0,0,0,0,0,0,0,0,0,0,0,0,0,0,0,0,0,0,0,0,0,0,0,0,0,0,0,0,0,0,0,0,0,0,0,0,0,0,0,0,0,0,0,0,0,0,0,0,0,-0.1951,-0.1951,0,-0.1964,-0.1964,-0.1964,-0.1951,-0.1951,-0.195,-0.195,-0.1954,-0.1954,-0.1955,0,0,0,0,0,0,0,0,0,0,0,0,0,-0.1917,-0.1917,-0.1951,-0.1951,-0.1952,-0.1964,-0.1964,-0.1964,-0.1951,-0.1951,-0.195,-0.195,-0.1954,-0.1954,-0.1955,0,0,0,0,0,0,0,0,0,0,0,0,0,-0.193,-0.1917,-0.1951,-0.1947,-0.1947,-0.1964,-0.1964,-0.1964,-0.1951,-0.1951,-0.195,-0.1949,-0.1954,-0.1954,-0.1955,-0.1971,0,0,-0.1957,-0.1958,0,0,0,0,0,0,0,0,-0.1929,-0.1931,-0.1948,-0.1948,-0.1948,-0.1957,-0.1954,-0.1967,-0.1951,-0.1948,-0.195,-0.1949,-0.1955,-0.1956,-0.1958,-0.1972,-0.1972,-0.1957,-0.1958,-0.1958,-0.1958,0,0,0,0,0,0,0,-0.1928,-0.193,-0.1955,-0.1948,-0.1948,-0.1946,-0.1947,-0.1956,-0.1954,-0.1948,-0.1948,-0.1952,-0.1955,-0.1957,-0.1958,-0.1972,-0.1957,-0.1958,-0.1958,-0.1959,-0.2008,-0.2008,0,0,0,0,0,0,-0.193,-0.1929,-0.1954,-0.1955,-0.1938,-0.1947,-0.1949,-0.1953,-0.1954,-0.1954,-0.1952,-0.1951,-0.1956,-0.1957,-0.1958,-0.2004,-0.1958,-0.1959,-0.1959,-0.2007,-0.2008,-0.2009,0,0,0,0,0,0,-0.1929,-0.1932,-0.1954,-0.1944,-0.1946,-0.1949,-0.1954,-0.1954,-0.1952,-0.1957,-0.1956,-0.195,-0.1956,-0.1957,-0.1967,-0.2003,-0.1959,-0.196,-0.2006,-0.2007,-0.2008,-0.2079,0,0,0,0,0,0,-0.1928,-0.1932,-0.1933,-0.1944,-0.1947,-0.1964,-0.1955,-0.1955,-0.1956,-0.1954,-0.1955,-0.1955,-0.1955,-0.1966,-0.1968,-0.2003,-0.196,-0.2005,-0.2006,-0.2008,-0.2075,-0.2082,-0.2088,0,0,0,0,0,-0.1927,-0.1931,-0.1933,-0.1936,-0.195,-0.1964,-0.1965,-0.1964,-0.1956,-0.1959,-0.196,-0.1955,-0.1978,-0.1967,-0.1969,-0.2005,-0.2004,-0.2006,-0.2008,-0.2072,-0.2081,-0.2088,0,0,0,0,0,0,-0.1913,-0.1931,-0.1933,-0.1941,-0.1952,-0.1962,-0.1962,-0.1964,-0.1967,-0.1961,-0.1963,-0.1964,-0.1986,-0.1981,-0.1969,-0.2022,-0.1991,-0.1994,-0.204,-0.2048,-0.2054,-0.2102,-0.1961,0,0,0,0,0,-0.1913,-0.192,-0.1938,-0.1942,-0.1948,-0.1955,-0.1959,-0.196,-0.1966,-0.1966,-0.1968,-0.1975,-0.1997,-0.2008,-0.2014,-0.2044,-0.2008,-0.2067,-0.2074,-0.208,-0.2119,-0.2107,-0.2117,-0.2015,-0.2015,-0.2015,0,0,-0.1908,-0.1918,-0.1922,-0.1939,-0.1944,-0.196,-0.1955,-0.196,-0.1983,-0.1967,-0.1988,-0.1991,-0.2006,-0.204,-0.2051,-0.2042,-0.2071,-0.2082,-0.2087,-0.2124,-0.211,-0.212,-0.2129,-0.2016,-0.2016,-0.2016,0,0,-0.1902,-0.1911,-0.1916,-0.1931,-0.1943,-0.1955,-0.1957,-0.1969,-0.1985,-0.2002,-0.2009,-0.2051,-0.2045,-0.2101,-0.2121,-0.217,-0.2099,-0.2144,-0.2229,-0.2217,-0.2226,-0.2233,-0.2121,-0.2119,-0.2157,-0.2157,-0.2157,0,-0.1894,-0.1907,-0.1919,-0.1932,-0.1947,-0.1955,-0.197,-0.1994,-0.2009,-0.2057,-0.201,-0.2084,-0.2095,-0.2197,-0.2215,-0.2194,-0.212,-0.22,-0.2227,-0.2234,-0.2241,-0.2125,-0.2121,-0.216,-0.216,-0.216,-0.2159,0,-0.1897,-0.191,-0.1913,-0.1937,-0.1957,-0.1967,-0.2007,-0.2048,-0.2057,-0.2093,-0.2171,-0.2183,-0.2245,-0.2248,-0.2248,-0.2324,-0.2227,-0.2227,-0.221,-0.2256,-0.2129,-0.2123,-0.2166,-0.2164,-0.2163,-0.2162,0,0,-0.1867,-0.1908,-0.1907,-0.1932,-0.1961,-0.1984,-0.2052,-0.2136,-0.2215,-0.2224,-0.2302,-0.2376,-0.2393,-0.2419,-0.2425,-0.2432,-0.2395,-0.235,-0.2347,-0.2242,-0.2266,-0.2181,-0.2165,-0.2375,-0.2377,-0.2378,-0.2129,0,-0.1861,-0.1887,-0.1914,-0.1953,-0.1974,-0.2037,-0.212,-0.2206,-0.2257,-0.2331,-0.2393,-0.2444,-0.2451,-0.2467,-0.2489,-0.2417,-0.2396,-0.2457,-0.2237,-0.223,-0.2155,-0.2165,-0.209,-0.1864,-0.2124,-0.2123,-0.2122,0,-0.185,-0.1873,-0.1902,-0.2002,-0.2023,-0.2054,-0.2204,-0.2275,-0.2414,-0.2466,-0.2547,-0.2551,-0.2604,-0.2563,-0.2502,-0.2518,-0.2416,-0.2346,-0.2334,-0.2246,-0.214,-0.1877,-0.1844,-0.1798,-0.2113,-0.2114,-0.2115,0,-0.1819,-0.1872,-0.1898,-0.1919,-0.2028,-0.2086,-0.2155,-0.2312,-0.2402,-0.2521,-0.255,-0.2628,-0.2587,-0.2545,-0.2419,-0.2438,-0.2271,-0.2276,-0.2101,-0.2087,-0.1987,-0.1965,-0.1907,-0.2234,-0.2235,-0.2235,-0.2236,0,-0.1805,-0.1829,-0.1883,-0.19,-0.1976,-0.2065,-0.2175,-0.2295,-0.2431,-0.251,-0.2589,-0.2601,-0.2573,-0.2475,-0.2399,-0.221,-0.2251,-0.212,-0.2048,-0.1997,-0.198,-0.1908,-0.1929,-0.2226,-0.2228,-0.223,-0.2232,0,-0.1762,-0.1798,-0.183,-0.1923,-0.1952,-0.1999,-0.2136,-0.2233,-0.2373,-0.2445,-0.2465,-0.252,-0.2398,-0.2331,-0.2189,-0.2129,-0.1943,-0.1923,-0.1817,-0.1743,-0.1585,-0.1612,-0.1499,-0.1453,-0.17,-0.1697,-0.1694,0,-0.1742,-0.1748,-0.1804,-0.1812,-0.1836,-0.1915,-0.1991,-0.2175,-0.2263,-0.238,-0.2392,-0.2312,-0.2252,-0.2014,-0.19,-0.1726,-0.1751,-0.1557,-0.1655,-0.1576,-0.1552,-0.1589,-0.1563,-0.1485,-0.1481,-0.1478,-0.1475,0,-0.1693,-0.1701,-0.1724,-0.1731,-0.1765,-0.1831,-0.1929,-0.2005,-0.22,-0.2239,-0.2247,-0.2193,-0.1993,-0.1792,-0.159,-0.1502,-0.153,-0.1482,-0.1454,-0.1445,-0.1429,-0.1347,-0.158,-0.1445,-0.1448,-0.145,-0.1452,-0.1453,-0.1639,-0.1626,-0.1637,-0.1642,-0.1678,-0.1726,-0.1742,-0.1858,-0.1945,-0.1982,-0.2023,-0.1892,-0.1732,-0.1454,-0.1348,-0.116,-0.1264,-0.1131,-0.117,-0.1212,-0.1211,-0.1345,-0.1124,-0.1126,-0.1126,-0.1127,-0.1128,0,-0.1556,-0.1551,-0.1548,-0.1544,-0.153,-0.159,-0.1687,-0.1682,-0.1693,-0.1726,-0.1684,-0.153,-0.1312,-0.1181,-0.0984,-0.0886,-0.089,-0.0854,-0.0911,-0.0903,-0.1036,-0.1074,-0.077,-0.077,-0.077,-0.077,-0.077,-0.077,-0.151,-0.147,-0.1464,-0.1392,-0.1384,-0.1336,-0.1356,-0.1353,-0.1368,-0.1281,-0.1214,-0.1199,-0.1118,-0.101,-0.0815,-0.074,-0.0724,-0.0684,-0.0712,-0.0834,-0.0865,-0.0894,-0.0935,-0.0607,-0.0607,-0.0547,-0.0546,-0.0546]},{"header":{"parameterUnit":"m.s-1","parameterCategory":2,"la1":30.2991,"la2":30.254,"lo1":-89.0895,"lo2":-89.0444,"dy":0.0017,"dx":0.0017,"nx":28,"ny":28,"refTime":"2024-03-27T21:00:00:Z","depth":"0","parameterNumber":3,"parameterNumberName":"V-component_of_CURRENTS"},"data":[0,0,0,0,0,0,0,0,0,0,0,0,0,0,0,0,0,0,0,0,0,0,0,0,0,0,0,0,0,0,0,0,0,0,0,0,0,0,0,0,0,0,0,0,0,0,0,0,0,0,0,0,0,0,0,0,0,0,-0.0421,-0.042,0,-0.0377,-0.0377,-0.0376,-0.0346,-0.0346,-0.0345,-0.0345,-0.0278,-0.0276,-0.0275,0,0,0,0,0,0,0,0,0,0,0,0,0,-0.045,-0.045,-0.0421,-0.042,-0.042,-0.0378,-0.0377,-0.0376,-0.0346,-0.0346,-0.0345,-0.0345,-0.0278,-0.0276,-0.0275,0,0,0,0,0,0,0,0,0,0,0,0,0,-0.0425,-0.045,-0.0421,-0.0399,-0.0397,-0.0378,-0.0377,-0.0376,-0.0346,-0.0346,-0.0345,-0.0345,-0.0279,-0.0277,-0.0274,-0.0267,0,0,-0.0267,-0.0266,0,0,0,0,0,0,0,0,-0.0427,-0.0424,-0.0403,-0.0401,-0.0398,-0.0367,-0.0363,-0.0339,-0.0346,-0.0365,-0.0345,-0.0345,-0.0306,-0.0301,-0.0294,-0.0264,-0.0261,-0.0267,-0.0266,-0.0265,-0.0264,0,0,0,0,0,0,0,-0.0429,-0.0426,-0.0403,-0.0402,-0.0399,-0.0383,-0.0379,-0.0358,-0.0338,-0.0364,-0.0361,-0.0357,-0.0304,-0.0296,-0.0292,-0.026,-0.0267,-0.0265,-0.0263,-0.0263,-0.0222,-0.0222,0,0,0,0,0,0,-0.0436,-0.0428,-0.0405,-0.0402,-0.0412,-0.0383,-0.0379,-0.0377,-0.0338,-0.0332,-0.0357,-0.0355,-0.0301,-0.0295,-0.029,-0.0282,-0.0265,-0.0262,-0.0261,-0.0221,-0.0222,-0.0222,0,0,0,0,0,0,-0.0437,-0.0434,-0.0407,-0.0414,-0.0409,-0.0383,-0.0381,-0.0376,-0.0369,-0.0333,-0.0327,-0.0355,-0.03,-0.0293,-0.0276,-0.0279,-0.0261,-0.0259,-0.0221,-0.0221,-0.0222,-0.0265,0,0,0,0,0,0,-0.0438,-0.0435,-0.0439,-0.0414,-0.0409,-0.0399,-0.0381,-0.0376,-0.0367,-0.0364,-0.0329,-0.0323,-0.0299,-0.028,-0.0274,-0.0275,-0.0257,-0.0221,-0.0221,-0.0222,-0.0263,-0.0267,-0.027,0,0,0,0,0,-0.0439,-0.0444,-0.0439,-0.0436,-0.0414,-0.0399,-0.0395,-0.0375,-0.0367,-0.0367,-0.0346,-0.0324,-0.028,-0.0279,-0.0271,-0.0272,-0.022,-0.0221,-0.0222,-0.0261,-0.0266,-0.027,0,0,0,0,0,0,-0.0457,-0.0441,-0.0435,-0.0434,-0.0421,-0.0394,-0.0392,-0.0379,-0.0362,-0.036,-0.0328,-0.032,-0.0308,-0.0285,-0.0285,-0.0263,-0.0246,-0.0246,-0.0279,-0.0283,-0.0286,-0.0292,-0.0255,0,0,0,0,0,-0.0464,-0.0466,-0.0445,-0.0446,-0.0441,-0.0418,-0.041,-0.0398,-0.0379,-0.0371,-0.0347,-0.0323,-0.0305,-0.0291,-0.0273,-0.0258,-0.0197,-0.0254,-0.0258,-0.0261,-0.0261,-0.0133,-0.0123,-0.0224,-0.0224,-0.0224,0,0,-0.0471,-0.0463,-0.0464,-0.0451,-0.0438,-0.0438,-0.0413,-0.0404,-0.0406,-0.0366,-0.0361,-0.0336,-0.0306,-0.0293,-0.0285,-0.0273,-0.0209,-0.0261,-0.0264,-0.0263,-0.0132,-0.0122,-0.0113,-0.0225,-0.0225,-0.0225,0,0,-0.049,-0.048,-0.0489,-0.0481,-0.0467,-0.0453,-0.0454,-0.0431,-0.0422,-0.0413,-0.0387,-0.0359,-0.0336,-0.0307,-0.0292,-0.0301,-0.0235,-0.0304,-0.0319,-0.0195,-0.0185,-0.0175,-0.012,-0.0105,-0.03,-0.03,-0.03,0,-0.0499,-0.0509,-0.0489,-0.0496,-0.0494,-0.0464,-0.0475,-0.0462,-0.0438,-0.0426,-0.0418,-0.0353,-0.0339,-0.0299,-0.032,-0.0306,-0.0246,-0.0306,-0.0196,-0.0185,-0.0174,-0.012,-0.0102,-0.0302,-0.0302,-0.0302,-0.0302,0,-0.0525,-0.0533,-0.0537,-0.0539,-0.0533,-0.0536,-0.0517,-0.0516,-0.05,-0.047,-0.0427,-0.0384,-0.0337,-0.0336,-0.0343,-0.0271,-0.0259,-0.0216,-0.0181,-0.0166,-0.0111,-0.0092,-0.0305,-0.0305,-0.0304,-0.0303,0,0,-0.0545,-0.0555,-0.0557,-0.0573,-0.0557,-0.0561,-0.0566,-0.0551,-0.0533,-0.0495,-0.0439,-0.0427,-0.0373,-0.0354,-0.0324,-0.0242,-0.0148,-0.0215,-0.0207,-0.0156,0.0088,-0.0001,0.0011,-0.0069,-0.0066,-0.0063,0.0082,0,-0.0573,-0.0606,-0.0596,-0.0627,-0.0643,-0.0624,-0.0638,-0.0619,-0.0562,-0.0498,-0.0426,-0.0359,-0.0384,-0.0341,-0.0267,-0.0157,-0.0094,-0.0194,0.006,0.0066,-0.0008,0.0032,-0.0012,0.0106,0.0101,0.0104,0.0107,0,-0.0602,-0.0622,-0.0658,-0.0689,-0.0694,-0.0705,-0.0692,-0.0694,-0.06,-0.0552,-0.0447,-0.0351,-0.0247,-0.0242,-0.005,-0.0107,-0.0036,0.0043,0.0053,0.0002,0.0014,0.0097,0.0142,0.0225,0.0137,0.0134,0.0132,0,-0.0638,-0.0668,-0.0703,-0.0709,-0.0733,-0.075,-0.0762,-0.0706,-0.069,-0.054,-0.0447,-0.0309,-0.0197,-0.0065,0.0049,0.0031,0.0275,0.0294,0.0273,0.0266,0.0291,0.028,0.0455,0.0431,0.0431,0.0431,0.043,0,-0.0674,-0.0703,-0.0725,-0.0746,-0.0797,-0.0794,-0.0807,-0.0784,-0.0698,-0.0622,-0.0461,-0.0336,-0.0136,0.0026,0.0102,0.0231,0.0326,0.0272,0.0314,0.0265,0.025,0.0373,0.042,0.0436,0.0435,0.0434,0.0433,0,-0.0707,-0.0721,-0.0766,-0.0801,-0.0815,-0.085,-0.0868,-0.0862,-0.0758,-0.0622,-0.0559,-0.0326,-0.0126,0.0037,0.0265,0.0301,0.0476,0.0443,0.0321,0.0343,0.0368,0.0412,0.062,0.0681,0.0468,0.0467,0.0466,0,-0.0725,-0.0752,-0.0806,-0.0837,-0.0851,-0.0901,-0.094,-0.0911,-0.0867,-0.0618,-0.0538,-0.0292,-0.0149,0.012,0.0232,0.0364,0.0458,0.0406,0.0351,0.0363,0.0448,0.0479,0.052,0.0368,0.0366,0.0365,0.0364,0,-0.0755,-0.0773,-0.0812,-0.0878,-0.0922,-0.098,-0.0997,-0.0982,-0.0886,-0.0743,-0.0536,-0.0392,-0.0135,0.0009,0.0167,0.0238,0.0453,0.0376,0.0484,0.0446,0.041,0.0489,0.0229,0.0352,0.0353,0.0354,0.0354,0.0355,-0.0769,-0.0805,-0.0855,-0.0917,-0.0975,-0.1027,-0.1057,-0.1029,-0.0973,-0.0755,-0.0622,-0.0416,-0.0173,0.0027,0.0129,0.0309,0.0345,0.0369,0.044,0.0483,0.049,0.0135,0.0236,0.0237,0.0237,0.0238,0.0238,0,-0.0779,-0.0827,-0.089,-0.0965,-0.1028,-0.1051,-0.1073,-0.1066,-0.0987,-0.0822,-0.0674,-0.0414,-0.0218,0.003,0.0282,0.0387,0.0451,0.0473,0.0559,0.0614,0.0395,0.0333,0.0346,0.0346,0.0346,0.0346,0.0346,0.0346,-0.0786,-0.0843,-0.0882,-0.0985,-0.1037,-0.1096,-0.1107,-0.1064,-0.0975,-0.0776,-0.0607,-0.0503,-0.0133,0.0307,0.0561,0.0579,0.0744,0.0697,0.0829,0.0701,0.0698,0.0695,0.065,0.0729,0.073,0.1019,0.1022,0.1024]}],[{"header":{"parameterUnit":"m.s-1","parameterCategory":2,"la1":30.2991,"la2":30.254,"lo1":-89.0895,"lo2":-89.0444,"dy":0.0017,"dx":0.0017,"nx":28,"ny":28,"refTime":"2024-03-27T21:00:00:Z","depth":"2","parameterNumber":2,"parameterNumberName":"U-component_of_CURRENTS"},"data":[0,0,0,0,0,0,0,0,0,0,0,0,0,0,0,0,0,0,0,0,0,0,0,0,0,0,0,0,0,0,0,0,0,0,0,0,0,0,0,0,0,0,0,0,0,0,0,0,0,0,0,0,0,0,0,0,0,0,-0.1819,-0.1819,0,-0.1837,-0.1837,-0.1837,-0.1829,-0.1828,-0.1828,-0.1828,-0.1839,-0.184,-0.1841,0,0,0,0,0,0,0,0,0,0,0,0,0,-0.1781,-0.1781,-0.1819,-0.1819,-0.182,-0.1837,-0.1837,-0.1837,-0.1829,-0.1828,-0.1828,-0.1828,-0.1839,-0.184,-0.1841,0,0,0,0,0,0,0,0,0,0,0,0,0,-0.1796,-0.1782,-0.1819,-0.1819,-0.1819,-0.1837,-0.1837,-0.1837,-0.1829,-0.1828,-0.1828,-0.1828,-0.1839,-0.184,-0.1841,-0.1855,0,0,-0.1843,-0.1844,0,0,0,0,0,0,0,0,-0.1795,-0.1797,-0.1818,-0.1819,-0.1819,-0.1831,-0.1828,-0.1843,-0.1829,-0.1823,-0.1828,-0.1827,-0.1838,-0.1838,-0.1841,-0.1855,-0.1856,-0.1843,-0.1844,-0.1844,-0.1845,0,0,0,0,0,0,0,-0.1794,-0.1797,-0.1824,-0.1819,-0.1819,-0.1819,-0.1821,-0.183,-0.1831,-0.1824,-0.1824,-0.1828,-0.1837,-0.184,-0.1841,-0.1856,-0.1843,-0.1844,-0.1845,-0.1845,-0.1898,-0.1899,0,0,0,0,0,0,-0.1796,-0.1796,-0.1824,-0.1825,-0.1808,-0.182,-0.1822,-0.1827,-0.1831,-0.1832,-0.1829,-0.1828,-0.1839,-0.184,-0.1841,-0.1883,-0.1844,-0.1845,-0.1846,-0.1897,-0.1898,-0.1899,0,0,0,0,0,0,-0.1795,-0.1798,-0.1823,-0.1812,-0.1815,-0.1821,-0.1827,-0.1827,-0.183,-0.1836,-0.1836,-0.1831,-0.1838,-0.184,-0.1853,-0.1883,-0.1846,-0.1846,-0.1896,-0.1898,-0.1899,-0.1952,0,0,0,0,0,0,-0.1794,-0.1798,-0.1801,-0.1812,-0.1816,-0.1836,-0.1828,-0.1828,-0.1834,-0.1833,-0.1838,-0.1838,-0.1838,-0.1852,-0.1854,-0.1883,-0.1847,-0.1895,-0.1897,-0.1898,-0.1949,-0.1955,-0.196,0,0,0,0,0,-0.1792,-0.1799,-0.1801,-0.1804,-0.182,-0.1837,-0.1838,-0.184,-0.1835,-0.1839,-0.1843,-0.1838,-0.1864,-0.1853,-0.1856,-0.1886,-0.1894,-0.1896,-0.1898,-0.1946,-0.1954,-0.196,0,0,0,0,0,0,-0.1781,-0.1799,-0.1801,-0.1812,-0.1825,-0.1836,-0.184,-0.1842,-0.1849,-0.1845,-0.1847,-0.1848,-0.1872,-0.1868,-0.1856,-0.1905,-0.188,-0.1882,-0.1916,-0.1922,-0.1928,-0.1978,-0.1848,0,0,0,0,0,-0.1782,-0.1789,-0.1808,-0.1814,-0.1823,-0.1831,-0.1837,-0.184,-0.1848,-0.185,-0.1855,-0.1863,-0.1883,-0.1892,-0.1901,-0.1927,-0.1913,-0.1948,-0.1953,-0.1958,-0.2,-0.2021,-0.2032,-0.1906,-0.1906,-0.1906,0,0,-0.1778,-0.1788,-0.1793,-0.1813,-0.182,-0.1838,-0.1833,-0.1843,-0.1864,-0.1851,-0.1873,-0.1879,-0.1892,-0.1922,-0.1933,-0.1923,-0.1968,-0.196,-0.1964,-0.2005,-0.2024,-0.2037,-0.2048,-0.1907,-0.1907,-0.1907,0,0,-0.1776,-0.1786,-0.1793,-0.181,-0.1826,-0.1837,-0.1842,-0.1857,-0.1871,-0.189,-0.1896,-0.1934,-0.1933,-0.1978,-0.1994,-0.2038,-0.1993,-0.2017,-0.2093,-0.2112,-0.2123,-0.2133,-0.2051,-0.2054,-0.2024,-0.2024,-0.2024,0,-0.1771,-0.1785,-0.1798,-0.1814,-0.1829,-0.1839,-0.1857,-0.1878,-0.1896,-0.1931,-0.1899,-0.1973,-0.1977,-0.2066,-0.2078,-0.2058,-0.2015,-0.2066,-0.2121,-0.2131,-0.214,-0.2055,-0.2057,-0.2027,-0.2027,-0.2026,-0.2026,0,-0.1778,-0.1793,-0.1799,-0.1825,-0.1844,-0.1858,-0.1893,-0.1923,-0.1933,-0.1965,-0.204,-0.206,-0.212,-0.2116,-0.211,-0.2193,-0.2116,-0.212,-0.2107,-0.2157,-0.2061,-0.2063,-0.2031,-0.203,-0.2029,-0.2028,0,0,-0.1754,-0.1797,-0.1797,-0.1819,-0.1852,-0.1871,-0.1922,-0.1986,-0.2049,-0.2073,-0.2149,-0.2212,-0.2244,-0.2268,-0.2277,-0.2301,-0.2297,-0.2239,-0.2238,-0.2161,-0.2251,-0.211,-0.2097,-0.2298,-0.23,-0.2302,-0.2128,0,-0.1753,-0.1783,-0.1808,-0.1843,-0.1865,-0.191,-0.1966,-0.2031,-0.2085,-0.2159,-0.2226,-0.2296,-0.2295,-0.233,-0.2362,-0.2311,-0.2316,-0.2339,-0.2214,-0.2209,-0.2085,-0.2102,-0.1972,-0.1801,-0.2129,-0.2129,-0.2129,0,-0.1749,-0.1772,-0.1802,-0.1873,-0.1889,-0.1917,-0.2025,-0.2078,-0.2201,-0.2249,-0.2355,-0.24,-0.247,-0.2449,-0.243,-0.243,-0.2368,-0.2319,-0.2311,-0.2183,-0.2076,-0.1821,-0.1791,-0.2131,-0.2131,-0.2131,-0.213,0,-0.1721,-0.1771,-0.1795,-0.1814,-0.1894,-0.1932,-0.198,-0.2105,-0.2164,-0.2316,-0.2362,-0.2472,-0.2477,-0.2477,-0.2397,-0.2408,-0.2316,-0.2314,-0.2131,-0.2114,-0.1988,-0.1958,-0.2331,-0.2331,-0.2331,-0.2332,-0.2333,0,-0.1712,-0.1733,-0.1784,-0.1799,-0.1847,-0.1915,-0.1994,-0.2084,-0.2197,-0.2241,-0.2405,-0.2435,-0.2485,-0.2447,-0.2397,-0.2235,-0.2316,-0.2152,-0.2089,-0.1989,-0.1963,-0.2263,-0.2258,-0.2325,-0.2327,-0.2328,-0.2329,0,-0.1675,-0.171,-0.1738,-0.1809,-0.183,-0.186,-0.1948,-0.2012,-0.2141,-0.2193,-0.2238,-0.236,-0.2296,-0.2306,-0.2238,-0.2178,-0.2086,-0.202,-0.1848,-0.1771,-0.1858,-0.1858,-0.1791,-0.1785,-0.178,-0.1776,-0.1772,0,-0.1659,-0.1666,-0.1712,-0.1718,-0.1742,-0.1793,-0.1828,-0.1958,-0.1987,-0.211,-0.2093,-0.2126,-0.2072,-0.1935,-0.188,-0.1761,-0.189,-0.158,-0.163,-0.1872,-0.1817,-0.1824,-0.183,-0.1433,-0.1427,-0.1422,-0.1418,0,-0.1616,-0.1624,-0.1643,-0.1646,-0.1664,-0.1694,-0.1724,-0.1734,-0.1843,-0.1863,-0.1831,-0.1817,-0.1729,-0.1573,-0.1487,-0.1418,-0.16,-0.1473,-0.1793,-0.16,-0.1524,-0.1474,-0.1493,-0.1375,-0.1379,-0.1382,-0.1385,-0.1386,-0.1568,-0.1555,-0.1562,-0.1562,-0.1578,-0.1565,-0.1548,-0.1556,-0.1543,-0.1539,-0.1545,-0.1474,-0.1453,-0.1251,-0.1148,-0.1115,-0.1232,-0.1208,-0.1228,-0.1252,-0.1253,-0.1175,-0.0952,-0.0954,-0.0956,-0.0957,-0.0958,0,-0.1493,-0.1485,-0.1477,-0.1464,-0.1432,-0.1476,-0.1455,-0.1402,-0.1304,-0.13,-0.1236,-0.1067,-0.0956,-0.0964,-0.0834,-0.0779,-0.0825,-0.0748,-0.0839,-0.088,-0.0917,-0.0909,-0.0512,-0.0511,-0.051,-0.0509,0,0,-0.1452,-0.1409,-0.1398,-0.1315,-0.1302,-0.1222,-0.1185,-0.1111,-0.107,-0.0953,-0.0907,-0.0971,-0.0946,-0.0759,-0.0684,-0.0589,-0.074,-0.0546,-0.0903,-0.1054,-0.109,-0.1171,-0.1201,0,0,0,0,0]},{"header":{"parameterUnit":"m.s-1","parameterCategory":2,"la1":30.2991,"la2":30.254,"lo1":-89.0895,"lo2":-89.0444,"dy":0.0017,"dx":0.0017,"nx":28,"ny":28,"refTime":"2024-03-27T21:00:00:Z","depth":"2","parameterNumber":3,"parameterNumberName":"V-component_of_CURRENTS"},"data":[0,0,0,0,0,0,0,0,0,0,0,0,0,0,0,0,0,0,0,0,0,0,0,0,0,0,0,0,0,0,0,0,0,0,0,0,0,0,0,0,0,0,0,0,0,0,0,0,0,0,0,0,0,0,0,0,0,0,-0.0269,-0.0268,0,-0.0222,-0.0221,-0.0221,-0.019,-0.019,-0.019,-0.019,-0.0122,-0.012,-0.0118,0,0,0,0,0,0,0,0,0,0,0,0,0,-0.0295,-0.0295,-0.0269,-0.0268,-0.0268,-0.0222,-0.0221,-0.0221,-0.019,-0.019,-0.019,-0.019,-0.0122,-0.012,-0.0118,0,0,0,0,0,0,0,0,0,0,0,0,0,-0.0269,-0.0295,-0.0269,-0.0247,-0.0245,-0.0222,-0.0221,-0.022,-0.019,-0.019,-0.019,-0.019,-0.0123,-0.012,-0.0118,-0.0107,0,0,-0.011,-0.0109,0,0,0,0,0,0,0,0,-0.0271,-0.0268,-0.0251,-0.0249,-0.0246,-0.0212,-0.0205,-0.0182,-0.019,-0.0211,-0.019,-0.0189,-0.015,-0.0146,-0.0137,-0.0104,-0.0101,-0.011,-0.0109,-0.0108,-0.0107,0,0,0,0,0,0,0,-0.0273,-0.027,-0.025,-0.0251,-0.0248,-0.0227,-0.0224,-0.0201,-0.0182,-0.0209,-0.0207,-0.0202,-0.0149,-0.014,-0.0135,-0.01,-0.011,-0.0108,-0.0107,-0.0106,-0.0065,-0.0065,0,0,0,0,0,0,-0.0281,-0.0272,-0.0251,-0.0249,-0.0259,-0.0227,-0.0223,-0.0223,-0.0182,-0.0176,-0.0202,-0.0201,-0.0144,-0.0138,-0.0133,-0.013,-0.0108,-0.0105,-0.0104,-0.0064,-0.0065,-0.0065,0,0,0,0,0,0,-0.0282,-0.028,-0.0253,-0.0259,-0.0254,-0.0227,-0.0227,-0.0222,-0.0215,-0.0178,-0.0171,-0.0201,-0.0144,-0.0136,-0.012,-0.0127,-0.0104,-0.0102,-0.0064,-0.0064,-0.0065,-0.0116,0,0,0,0,0,0,-0.0283,-0.0281,-0.0286,-0.026,-0.0254,-0.0245,-0.0227,-0.0221,-0.0213,-0.0211,-0.0175,-0.0168,-0.0143,-0.0124,-0.0117,-0.0123,-0.01,-0.0063,-0.0064,-0.0065,-0.0114,-0.0119,-0.0123,0,0,0,0,0,-0.0285,-0.0292,-0.0287,-0.0284,-0.0262,-0.0246,-0.0241,-0.022,-0.0213,-0.0213,-0.0191,-0.0169,-0.0124,-0.0122,-0.0114,-0.0119,-0.0063,-0.0064,-0.0065,-0.0112,-0.0118,-0.0123,0,0,0,0,0,0,-0.0305,-0.0289,-0.0283,-0.0285,-0.027,-0.0241,-0.0239,-0.0226,-0.0209,-0.0208,-0.0173,-0.0165,-0.0154,-0.013,-0.0129,-0.011,-0.009,-0.009,-0.0129,-0.0134,-0.0138,-0.0149,-0.0098,0,0,0,0,0,-0.0313,-0.0316,-0.0295,-0.0298,-0.0292,-0.0268,-0.026,-0.0247,-0.0227,-0.0219,-0.0194,-0.0169,-0.0151,-0.0138,-0.0118,-0.0106,-0.0048,-0.0104,-0.0108,-0.0112,-0.0116,0.0007,0.0015,-0.0068,-0.0068,-0.0068,0,0,-0.0323,-0.0314,-0.0316,-0.0303,-0.0289,-0.0289,-0.0262,-0.0254,-0.0257,-0.0214,-0.021,-0.0184,-0.0152,-0.0142,-0.0134,-0.0122,-0.0068,-0.0113,-0.0117,-0.0119,0.0007,0.0016,0.0024,-0.0069,-0.0069,-0.0069,0,0,-0.0344,-0.0336,-0.0346,-0.0337,-0.0322,-0.0307,-0.0308,-0.0284,-0.0276,-0.0266,-0.024,-0.0217,-0.0189,-0.0166,-0.0151,-0.0165,-0.0096,-0.0161,-0.0187,-0.0068,-0.0059,-0.005,-0.0007,0.0006,-0.016,-0.016,-0.0161,0,-0.0357,-0.0367,-0.0346,-0.0352,-0.035,-0.032,-0.033,-0.0318,-0.0293,-0.0288,-0.0273,-0.0218,-0.0199,-0.0174,-0.0191,-0.0174,-0.0111,-0.0172,-0.007,-0.006,-0.0051,-0.0007,0.0008,-0.0163,-0.0163,-0.0162,-0.0162,0,-0.0384,-0.0393,-0.0397,-0.0398,-0.0393,-0.0396,-0.0377,-0.0376,-0.0361,-0.0339,-0.0308,-0.0264,-0.0226,-0.0223,-0.0218,-0.0157,-0.014,-0.0089,-0.0054,-0.0045,-0.0001,0.0015,-0.0167,-0.0166,-0.0165,-0.0164,0,0,-0.041,-0.0417,-0.042,-0.0434,-0.0419,-0.0422,-0.0429,-0.0422,-0.042,-0.038,-0.035,-0.0331,-0.0286,-0.0268,-0.0234,-0.0152,-0.0062,-0.0104,-0.0097,-0.0058,0.0165,0.0043,0.0049,0.0031,0.0034,0.0037,0.0155,0,-0.044,-0.0471,-0.0461,-0.0492,-0.0507,-0.0488,-0.0504,-0.0493,-0.0455,-0.0416,-0.0353,-0.0297,-0.0305,-0.0262,-0.0192,-0.0069,-0.0014,-0.0102,0.0147,0.0153,0.0049,0.0067,0.0078,0.0175,0.0171,0.0174,0.0176,0,-0.047,-0.049,-0.0525,-0.0555,-0.056,-0.0571,-0.0576,-0.0581,-0.0522,-0.049,-0.0414,-0.0321,-0.0222,-0.0199,-0.0006,-0.005,0.0029,0.0116,0.0125,0.0043,0.0063,0.0174,0.0206,0.0205,0.0202,0.02,0.0198,0,-0.0508,-0.0537,-0.0572,-0.0578,-0.06,-0.0619,-0.0632,-0.0604,-0.0606,-0.0494,-0.0421,-0.0303,-0.0202,-0.0052,0.007,0.008,0.0284,0.0341,0.0288,0.0279,0.0349,0.0338,0.0469,0.0469,0.0469,0.0469,0.0468,0,-0.0545,-0.0574,-0.0595,-0.0615,-0.0667,-0.0664,-0.0695,-0.0685,-0.0641,-0.062,-0.0444,-0.0379,-0.0145,-0.0005,0.0099,0.021,0.0312,0.0274,0.0313,0.032,0.0306,0.0388,0.0377,0.0473,0.0472,0.0471,0.0471,0,-0.0579,-0.0591,-0.0636,-0.0671,-0.0685,-0.0722,-0.0755,-0.0767,-0.0694,-0.0635,-0.0575,-0.0398,-0.0225,-0.0041,0.0185,0.0236,0.0372,0.0368,0.0298,0.0324,0.0282,0.0267,0.0388,0.0385,0.0382,0.038,0.0378,0,-0.0597,-0.0623,-0.0676,-0.0707,-0.0722,-0.0774,-0.0813,-0.0811,-0.0803,-0.0677,-0.0638,-0.0442,-0.0344,-0.0087,0.0071,0.0246,0.0263,0.0317,0.0324,0.0254,0.0281,0.027,0.0259,0.0403,0.0401,0.04,0.0399,0,-0.063,-0.0647,-0.0684,-0.075,-0.0794,-0.0849,-0.0884,-0.0888,-0.0864,-0.0786,-0.07,-0.0597,-0.037,-0.0178,0.0014,0.0108,0.0302,0.029,0.033,0.037,0.0265,0.029,0.0281,0.0388,0.0389,0.039,0.0391,0.0391,-0.0647,-0.0682,-0.073,-0.079,-0.0847,-0.0893,-0.0921,-0.0919,-0.0915,-0.0779,-0.0765,-0.058,-0.0413,-0.0117,0.0017,0.0172,0.0168,0.0259,0.0267,0.0275,0.0205,0.0096,0.0172,0.0172,0.0172,0.0171,0.0171,0,-0.0663,-0.0706,-0.0766,-0.0837,-0.0897,-0.0919,-0.0951,-0.0939,-0.0902,-0.0792,-0.0706,-0.0501,-0.0304,-0.0122,0.0109,0.0208,0.0272,0.0229,0.0327,0.0334,0.0342,0.0279,0.0265,0.0266,0.0266,0.0267,0,0,-0.0674,-0.0727,-0.0761,-0.0856,-0.0907,-0.0957,-0.0963,-0.0911,-0.0831,-0.0707,-0.0585,-0.0459,-0.0274,-0.0086,0.0052,0.0179,0.0235,0.0188,0.01,0.0206,0.0213,0.0338,0.0243,0,0,0,0,0]}],[{"header":{"parameterUnit":"m.s-1","parameterCategory":2,"la1":30.2991,"la2":30.254,"lo1":-89.0895,"lo2":-89.0444,"dy":0.0017,"dx":0.0017,"nx":28,"ny":28,"refTime":"2024-03-27T21:00:00:Z","depth":"4","parameterNumber":2,"parameterNumberName":"U-component_of_CURRENTS"},"data":[0,0,0,0,0,0,0,0,0,0,0,0,0,0,0,0,0,0,0,0,0,0,0,0,0,0,0,0,0,0,0,0,0,0,0,0,0,0,0,0,0,0,0,0,0,0,0,0,0,0,0,0,0,0,0,0,0,0,-0.123,-0.123,0,-0.1282,-0.1282,-0.1283,-0.1309,-0.131,-0.131,-0.131,-0.1371,-0.1372,-0.1374,0,0,0,0,0,0,0,0,0,0,0,0,0,-0.1156,-0.1157,-0.1229,-0.123,-0.1231,-0.1282,-0.1282,-0.1283,-0.1309,-0.131,-0.131,-0.131,-0.137,-0.1372,-0.1374,0,0,0,0,0,0,0,0,0,0,0,0,0,-0.1194,-0.1158,-0.1229,-0.1252,-0.1255,-0.1282,-0.1282,-0.1283,-0.1309,-0.131,-0.131,-0.131,-0.137,-0.1372,-0.1374,-0.1381,0,0,-0.138,-0.1381,0,0,0,0,0,0,0,0,-0.1192,-0.1197,-0.1248,-0.125,-0.1253,-0.1291,-0.1279,-0.1317,-0.1309,-0.1287,-0.131,-0.131,-0.1346,-0.135,-0.1356,-0.1384,-0.1387,-0.1381,-0.1382,-0.1383,-0.1383,0,0,0,0,0,0,0,-0.1189,-0.1195,-0.1248,-0.1249,-0.1252,-0.1261,-0.1266,-0.1286,-0.1313,-0.1289,-0.1291,-0.13,-0.1347,-0.1354,-0.1358,-0.1388,-0.1381,-0.1383,-0.1384,-0.1385,-0.1482,-0.1483,0,0,0,0,0,0,-0.1187,-0.1192,-0.1247,-0.125,-0.1225,-0.1262,-0.1268,-0.1277,-0.1312,-0.1318,-0.13,-0.1301,-0.135,-0.1356,-0.136,-0.1417,-0.1383,-0.1385,-0.1386,-0.1481,-0.1482,-0.1484,0,0,0,0,0,0,-0.1185,-0.1191,-0.1245,-0.1224,-0.1231,-0.1263,-0.1273,-0.1278,-0.1307,-0.1321,-0.1327,-0.1326,-0.1351,-0.1357,-0.1396,-0.1418,-0.1386,-0.1388,-0.1479,-0.1481,-0.1483,-0.1502,0,0,0,0,0,0,-0.1182,-0.119,-0.1205,-0.1224,-0.1233,-0.1277,-0.1273,-0.1279,-0.1311,-0.1314,-0.1345,-0.135,-0.1352,-0.1393,-0.1398,-0.142,-0.1389,-0.1478,-0.148,-0.1483,-0.1499,-0.1504,-0.1508,0,0,0,0,0,-0.1179,-0.1197,-0.1205,-0.1213,-0.1249,-0.1278,-0.1284,-0.1305,-0.1312,-0.1331,-0.1351,-0.135,-0.1412,-0.1396,-0.1402,-0.1425,-0.1476,-0.1479,-0.1482,-0.1497,-0.1503,-0.1508,0,0,0,0,0,0,-0.1175,-0.1202,-0.1211,-0.1238,-0.1264,-0.1284,-0.1307,-0.1319,-0.1348,-0.1357,-0.1365,-0.1372,-0.1416,-0.142,-0.1402,-0.1462,-0.1445,-0.1449,-0.1455,-0.146,-0.1464,-0.1446,-0.1391,0,0,0,0,0,-0.118,-0.12,-0.1227,-0.125,-0.1266,-0.129,-0.1309,-0.1324,-0.1348,-0.1362,-0.1383,-0.1406,-0.1429,-0.1445,-0.1467,-0.1498,-0.1477,-0.1519,-0.1523,-0.1526,-0.1517,-0.1497,-0.1497,-0.1493,-0.1493,-0.1493,0,0,-0.1184,-0.1203,-0.1215,-0.1251,-0.1273,-0.1302,-0.1303,-0.1338,-0.1364,-0.1364,-0.1412,-0.1427,-0.1443,-0.1478,-0.1498,-0.1486,-0.152,-0.153,-0.1533,-0.1522,-0.15,-0.15,-0.15,-0.1495,-0.1495,-0.1495,0,0,-0.1199,-0.1222,-0.1245,-0.1271,-0.1311,-0.1325,-0.1341,-0.1375,-0.1397,-0.1438,-0.1444,-0.147,-0.1512,-0.152,-0.1529,-0.1572,-0.1546,-0.1587,-0.159,-0.157,-0.157,-0.1569,-0.1549,-0.1546,-0.1585,-0.1585,-0.1585,0,-0.1208,-0.1236,-0.1257,-0.1288,-0.1312,-0.1338,-0.1369,-0.1395,-0.1437,-0.1442,-0.1461,-0.15,-0.1529,-0.1543,-0.1566,-0.1581,-0.1559,-0.1566,-0.1573,-0.1571,-0.157,-0.1549,-0.1546,-0.1586,-0.1586,-0.1586,-0.1586,0,-0.1233,-0.1267,-0.1286,-0.1329,-0.1357,-0.139,-0.1424,-0.1452,-0.1478,-0.1486,-0.1516,-0.1545,-0.1554,-0.1582,-0.1592,-0.1599,-0.1584,-0.1581,-0.1552,-0.1571,-0.1549,-0.1545,-0.1588,-0.1587,-0.1587,-0.1587,0,0,-0.1226,-0.1291,-0.13,-0.1325,-0.1382,-0.1403,-0.1445,-0.1471,-0.1471,-0.152,-0.1516,-0.1576,-0.1565,-0.1576,-0.1589,-0.1589,-0.1583,-0.1583,-0.1582,-0.1549,-0.153,-0.1436,-0.1422,-0.157,-0.157,-0.1569,-0.152,0,-0.1243,-0.1297,-0.1327,-0.138,-0.1411,-0.1443,-0.1469,-0.1492,-0.1504,-0.1506,-0.1529,-0.1536,-0.1569,-0.1568,-0.1574,-0.1575,-0.1571,-0.1596,-0.1528,-0.1526,-0.1428,-0.1414,-0.1567,-0.1517,-0.1516,-0.1515,-0.1514,0,-0.1256,-0.1291,-0.1345,-0.1394,-0.1409,-0.1444,-0.1463,-0.1488,-0.1487,-0.1487,-0.1483,-0.1485,-0.1498,-0.1525,-0.1519,-0.1527,-0.1531,-0.1537,-0.1535,-0.1432,-0.1423,-0.1494,-0.1507,-0.1507,-0.1508,-0.1508,-0.1509,0,-0.1228,-0.13,-0.1341,-0.1365,-0.1424,-0.1449,-0.1477,-0.1482,-0.1462,-0.1465,-0.1426,-0.1443,-0.1432,-0.1446,-0.1465,-0.1484,-0.1448,-0.1468,-0.1387,-0.1381,-0.1473,-0.1475,-0.1458,-0.1458,-0.1458,-0.1458,-0.1459,0,-0.1222,-0.1258,-0.1337,-0.1361,-0.1391,-0.144,-0.1441,-0.1457,-0.1431,-0.1379,-0.1408,-0.1361,-0.1409,-0.1392,-0.143,-0.1378,-0.1412,-0.137,-0.1352,-0.1486,-0.1489,-0.147,-0.1472,-0.1457,-0.1457,-0.1457,-0.1458,0,-0.1181,-0.1238,-0.1286,-0.1359,-0.1383,-0.1405,-0.1417,-0.1384,-0.1378,-0.1308,-0.1299,-0.1279,-0.1261,-0.1294,-0.1311,-0.1298,-0.1291,-0.1272,-0.1401,-0.1395,-0.125,-0.1254,-0.1159,-0.1155,-0.1152,-0.1149,-0.1146,0,-0.1164,-0.1187,-0.1272,-0.1293,-0.1335,-0.1366,-0.1358,-0.1362,-0.13,-0.1247,-0.1187,-0.1165,-0.116,-0.1091,-0.1163,-0.1185,-0.1198,-0.1173,-0.1226,-0.1222,-0.1215,-0.1225,-0.1233,-0.1141,-0.114,-0.1139,-0.1138,0,-0.112,-0.1159,-0.1193,-0.1232,-0.1254,-0.1248,-0.124,-0.117,-0.1139,-0.1144,-0.104,-0.1025,-0.0993,-0.1024,-0.103,-0.1065,-0.1175,-0.1138,-0.1147,-0.1196,-0.12,-0.1198,-0.121,-0.1127,-0.1129,-0.113,-0.113,0,-0.1082,-0.1087,-0.1128,-0.1148,-0.1172,-0.1118,-0.1124,-0.105,-0.0994,-0.0931,-0.0913,-0.0928,-0.0967,-0.0959,-0.0979,-0.0981,-0.0992,-0.0982,-0.0999,-0.1012,-0.0992,-0.0977,-0.0799,0,0,0,0,0,-0.1037,-0.1023,-0.1035,-0.1041,-0.1054,-0.1059,-0.1026,-0.1012,-0.0979,-0.0875,-0.0879,-0.0861,-0.0855,-0.0881,-0.086,-0.0934,-0.1006,-0.0906,-0.1006,-0.1062,-0.1076,-0.1069,0,0,0,0,0,0,-0.1003,-0.1014,-0.1002,-0.0941,-0.0922,-0.0901,-0.0876,-0.0858,-0.0791,-0.0791,-0.0798,-0.0826,-0.0847,-0.0871,-0.0854,-0.0862,-0.0908,-0.0935,-0.0933,-0.1055,-0.1067,-0.1078,-0.1076,0,0,0,0,0]},{"header":{"parameterUnit":"m.s-1","parameterCategory":2,"la1":30.2991,"la2":30.254,"lo1":-89.0895,"lo2":-89.0444,"dy":0.0017,"dx":0.0017,"nx":28,"ny":28,"refTime":"2024-03-27T21:00:00:Z","depth":"4","parameterNumber":3,"parameterNumberName":"V-component_of_CURRENTS"},"data":[0,0,0,0,0,0,0,0,0,0,0,0,0,0,0,0,0,0,0,0,0,0,0,0,0,0,0,0,0,0,0,0,0,0,0,0,0,0,0,0,0,0,0,0,0,0,0,0,0,0,0,0,0,0,0,0,0,0,-0.0156,-0.0155,0,-0.0118,-0.0117,-0.0117,-0.0092,-0.0092,-0.0092,-0.0091,-0.0034,-0.0032,-0.0031,0,0,0,0,0,0,0,0,0,0,0,0,0,-0.0165,-0.0165,-0.0156,-0.0155,-0.0155,-0.0118,-0.0117,-0.0117,-0.0092,-0.0092,-0.0092,-0.0091,-0.0034,-0.0032,-0.0031,0,0,0,0,0,0,0,0,0,0,0,0,0,-0.0147,-0.0166,-0.0156,-0.0138,-0.0136,-0.0118,-0.0117,-0.0116,-0.0092,-0.0092,-0.0092,-0.0091,-0.0035,-0.0033,-0.003,-0.0021,0,0,-0.0024,-0.0023,0,0,0,0,0,0,0,0,-0.0148,-0.0147,-0.0141,-0.0139,-0.0137,-0.011,-0.0099,-0.0084,-0.0092,-0.0108,-0.0091,-0.0091,-0.0058,-0.0054,-0.0047,-0.0018,-0.0016,-0.0024,-0.0022,-0.0021,-0.0021,0,0,0,0,0,0,0,-0.015,-0.0148,-0.014,-0.0141,-0.0138,-0.0118,-0.0116,-0.0096,-0.0084,-0.0107,-0.0105,-0.0102,-0.0056,-0.0049,-0.0045,-0.0015,-0.0024,-0.0022,-0.0021,-0.002,0.0008,0.0008,0,0,0,0,0,0,-0.0158,-0.015,-0.0141,-0.0139,-0.0143,-0.0118,-0.0115,-0.0118,-0.0084,-0.0079,-0.0102,-0.0101,-0.0052,-0.0047,-0.0043,-0.0051,-0.0021,-0.0019,-0.0018,0.0009,0.0008,0.0008,0,0,0,0,0,0,-0.0158,-0.0158,-0.0143,-0.0143,-0.014,-0.0119,-0.0122,-0.0118,-0.0113,-0.0081,-0.0075,-0.0102,-0.0052,-0.0046,-0.0033,-0.0047,-0.0019,-0.0017,0.001,0.0009,0.0008,-0.0053,0,0,0,0,0,0,-0.0159,-0.0158,-0.0165,-0.0144,-0.014,-0.0138,-0.0122,-0.0117,-0.0111,-0.0109,-0.0079,-0.0073,-0.0051,-0.0036,-0.003,-0.0044,-0.0015,0.001,0.0009,0.0008,-0.005,-0.0055,-0.006,0,0,0,0,0,-0.0159,-0.0169,-0.0166,-0.0165,-0.015,-0.0138,-0.0134,-0.0118,-0.0111,-0.0112,-0.0094,-0.0074,-0.0038,-0.0035,-0.0028,-0.0041,0.0011,0.001,0.0008,-0.0048,-0.0054,-0.006,0,0,0,0,0,0,-0.0178,-0.0167,-0.0163,-0.0169,-0.0158,-0.0134,-0.0134,-0.0123,-0.0109,-0.0108,-0.0078,-0.0071,-0.0066,-0.0044,-0.0041,-0.0036,-0.0012,-0.0012,-0.0056,-0.0062,-0.0067,-0.0098,-0.0013,0,0,0,0,0,-0.0186,-0.0191,-0.0175,-0.0182,-0.0177,-0.0157,-0.0151,-0.0141,-0.0124,-0.0118,-0.0097,-0.0077,-0.0065,-0.0057,-0.0039,-0.0034,-0.0041,-0.0039,-0.0044,-0.0049,-0.0069,-0.0115,-0.0127,0.0004,0.0004,0.0004,0,0,-0.0196,-0.019,-0.0194,-0.0186,-0.0176,-0.0177,-0.0153,-0.0148,-0.0156,-0.0114,-0.0116,-0.0093,-0.0068,-0.0065,-0.0061,-0.0049,-0.0082,-0.005,-0.0054,-0.0072,-0.0118,-0.0131,-0.0143,0.0003,0.0003,0.0003,0,0,-0.0217,-0.0213,-0.0224,-0.0217,-0.0206,-0.0195,-0.0196,-0.0176,-0.0174,-0.0168,-0.0147,-0.0143,-0.0108,-0.0107,-0.0099,-0.0123,-0.0108,-0.0104,-0.0155,-0.02,-0.0212,-0.0222,-0.0221,-0.0231,-0.0107,-0.0107,-0.0107,0,-0.023,-0.0241,-0.0224,-0.0231,-0.0233,-0.0207,-0.0219,-0.0212,-0.0193,-0.0204,-0.0177,-0.0168,-0.0138,-0.0163,-0.0161,-0.0138,-0.0143,-0.0134,-0.021,-0.022,-0.023,-0.0226,-0.0237,-0.011,-0.011,-0.011,-0.0109,0,-0.0254,-0.0266,-0.0271,-0.0274,-0.0273,-0.0278,-0.0268,-0.0273,-0.0262,-0.0259,-0.0277,-0.0246,-0.0248,-0.023,-0.0196,-0.0248,-0.0219,-0.0213,-0.02,-0.0248,-0.0239,-0.0249,-0.0115,-0.0114,-0.0113,-0.0112,0,0,-0.028,-0.0287,-0.0292,-0.0306,-0.0299,-0.0304,-0.0321,-0.0337,-0.037,-0.0349,-0.04,-0.0364,-0.0356,-0.0348,-0.0316,-0.034,-0.0389,-0.0302,-0.0303,-0.0311,-0.0459,-0.0336,-0.0334,-0.0398,-0.0401,-0.0403,-0.0415,0,-0.0306,-0.0335,-0.033,-0.0364,-0.0378,-0.037,-0.0396,-0.041,-0.0415,-0.0456,-0.0449,-0.047,-0.0399,-0.0406,-0.0423,-0.0405,-0.0422,-0.0384,-0.0403,-0.0403,-0.0298,-0.0345,-0.0412,-0.0422,-0.0424,-0.0426,-0.0427,0,-0.033,-0.035,-0.0386,-0.0423,-0.043,-0.0448,-0.0497,-0.0515,-0.056,-0.0569,-0.0595,-0.0588,-0.0612,-0.0555,-0.0565,-0.0543,-0.0508,-0.0487,-0.0488,-0.0366,-0.03,-0.037,-0.0445,-0.0444,-0.0442,-0.0441,-0.044,0,-0.0358,-0.0392,-0.0427,-0.0435,-0.0468,-0.0495,-0.0517,-0.0555,-0.0589,-0.0651,-0.0684,-0.0712,-0.0726,-0.0718,-0.0626,-0.0618,-0.063,-0.0622,-0.048,-0.0469,-0.055,-0.0538,-0.0652,-0.0652,-0.0652,-0.0652,-0.0652,0,-0.0384,-0.0416,-0.0446,-0.0466,-0.0526,-0.0535,-0.0604,-0.0628,-0.0686,-0.0732,-0.0746,-0.0774,-0.077,-0.0753,-0.0686,-0.0588,-0.0675,-0.0502,-0.0479,-0.0567,-0.0558,-0.0555,-0.0543,-0.0652,-0.0652,-0.0652,-0.0652,0,-0.0403,-0.0421,-0.0468,-0.0517,-0.0538,-0.058,-0.0645,-0.0695,-0.0736,-0.0802,-0.0826,-0.0845,-0.0802,-0.0753,-0.0725,-0.0644,-0.0581,-0.052,-0.0588,-0.0565,-0.0381,-0.0373,-0.0413,-0.0409,-0.0406,-0.0403,-0.0401,0,-0.0413,-0.0437,-0.0503,-0.0538,-0.0561,-0.0624,-0.0669,-0.0718,-0.0757,-0.0815,-0.0844,-0.0836,-0.0818,-0.0688,-0.0633,-0.0517,-0.0474,-0.0453,-0.045,-0.0391,-0.0365,-0.0361,-0.0357,-0.0396,-0.0395,-0.0394,-0.0393,0,-0.0432,-0.0456,-0.0494,-0.0565,-0.0617,-0.0677,-0.0734,-0.076,-0.0806,-0.0856,-0.0834,-0.0779,-0.0719,-0.0635,-0.0525,-0.0441,-0.0489,-0.0419,-0.0426,-0.0423,-0.037,-0.0347,-0.0347,-0.0382,-0.0383,-0.0384,-0.0385,0,-0.0444,-0.0475,-0.0526,-0.0585,-0.0654,-0.0699,-0.0731,-0.0753,-0.0787,-0.0825,-0.0807,-0.0754,-0.0744,-0.0592,-0.0495,-0.0393,-0.0377,-0.0359,-0.0369,-0.0381,-0.0347,-0.0274,-0.0252,0,0,0,0,0,-0.0452,-0.0485,-0.0543,-0.0608,-0.0673,-0.0706,-0.0762,-0.0784,-0.0819,-0.0789,-0.0791,-0.0714,-0.0571,-0.0533,-0.0408,-0.0438,-0.0367,-0.0289,-0.0353,-0.0318,-0.0331,-0.0284,0,0,0,0,0,0,-0.0461,-0.0512,-0.0538,-0.0609,-0.0651,-0.0718,-0.0744,-0.0764,-0.0739,-0.0758,-0.068,-0.067,-0.0533,-0.0633,-0.0401,-0.0378,-0.0396,-0.0239,-0.0236,-0.0311,-0.0323,-0.0333,-0.0289,0,0,0,0,0]}]]